パンスターズ彗星

P/2019 A3 ( PanSTARRS ) 2024

English version
Home page
Updated on April 18, 2022

---------------------------------------------------------------------

・ プロフィール

・ 軌道要素

Epoch 2022 Jan. 21.0 TT = JDT 2459600.5                                         
T 2024 Mar. 2.28876 TT                                  Rudenko                 
q   2.3093745            (2000.0)            P               Q                  
n   0.17663742     Peri.  325.55322     +0.98797355     +0.07035833             
a   3.1459193      Node    31.29195     +0.02501799     +0.80600339             
e   0.2659143      Incl.   15.37235     -0.15258559     +0.58771442             
P   5.58                                                                        
From 59 observations 2018 Aug. 8-2022 Apr. 1, mean residual 0".3.               

・ 光度変化

        H = 18.5  G = 0.15

---------------------------------------------------------------------

軌道要素はM.P.E.C. 2022-H04に掲載されたものです。
光度グラフはComet for Windowsで作成したものです。

---------------------------------------------------------------------

Copyright(C) Seiichi Yoshida (comet@aerith.net). All rights reserved.